Location: Asheville, NC
(35.6000°N, 82.5500°W)
Time: 12:09:40
(UTC-04:00)

Vanguard 3 - Pass Details

Date: 16 March 2018
Orbit: 508 x 3264 km, 33.3° (Epoch: 21 June)

Event Time Altitude Azimuth Distance (km) Brightness Sun altitude
Rises 10:26:04 0° 257° (WSW) 7,188 11.6 31.7°
Reaches altitude 10° 10:30:53 10° 257° (WSW) 6,201 11.3 32.6°
Maximum altitude 10:50:47 81° 174° (S) 2,793 10.6 36.0°
Drops below altitude 10° 11:04:07 10° 89° (E) 4,389 11.7 38.2°
Sets 11:06:54 0° 88° (E) 5,083 11.8 38.6°
